Time,TemperatureF,DewpointF,PressureIn,WindDirection,WindDirectionDegrees,WindSpeedMPH,WindSpeedGustMPH,Humidity,HourlyPrecipIn,Conditions,Clouds,dailyrainin,SolarRadiationWatts/m^2,SoftwareType,DateUTC
2013-09-19 00:01:00,74.7,72.9,29.96,North,355,0.0,5.0,94,0.00,,CLR,0.02,0.00,VWS V14.01,2013-09-19 04:01:00,
2013-09-19 00:06:00,74.7,72.9,29.96,North,355,1.0,2.0,94,0.00,,CLR,0.00,0.00,VWS V14.01,2013-09-19 04:06:00,
2013-09-19 00:08:00,74.7,72.9,29.96,North,355,1.0,3.0,94,0.00,,CLR,0.00,0.00,VWS V14.01,2013-09-19 04:08:00,
2013-09-19 00:13:00,74.8,73.0,29.96,North,355,1.0,2.0,94,0.00,,CLR,0.00,0.00,VWS V14.01,2013-09-19 04:13:00,
2013-09-19 00:18:00,74.9,73.1,29.95,North,355,1.0,3.0,94,0.00,,CLR,0.00,0.00,VWS V14.01,2013-09-19 04:18:00,
2013-09-19 00:23:00,74.8,73.0,29.96,North,355,2.0,3.0,94,0.00,,CLR,0.00,0.00,VWS V14.01,2013-09-19 04:23:00,
2013-09-19 00:28:00,74.8,73.0,29.95,North,355,0.0,1.0,94,0.00,,CLR,0.00,0.00,VWS V14.01,2013-09-19 04:28:00,
2013-09-19 00:33:00,75.0,73.2,29.95,North,355,0.0,0.0,94,0.00,,CLR,0.00,0.00,VWS V14.01,2013-09-19 04:33:00,
2013-09-19 00:38:00,74.9,73.1,29.95,North,355,1.0,2.0,94,0.00,,CLR,0.00,0.00,VWS V14.01,2013-09-19 04:38:00,
2013-09-19 00:43:00,74.9,73.1,29.95,North,355,2.0,3.0,94,0.00,,CLR,0.00,0.00,VWS V14.01,2013-09-19 04:43:00,
2013-09-19 00:48:00,74.9,73.1,29.95,North,355,3.0,4.0,94,0.00,,CLR,0.00,0.00,VWS V14.01,2013-09-19 04:48:00,
2013-09-19 00:53:00,74.9,73.1,29.95,North,355,2.0,4.0,94,0.00,,CLR,0.00,0.00,VWS V14.01,2013-09-19 04:53:00,
2013-09-19 00:58:00,74.8,73.0,29.95,North,355,2.0,4.0,94,0.00,,CLR,0.00,0.00,VWS V14.01,2013-09-19 04:58:00,
2013-09-19 01:03:00,75.0,73.2,29.95,North,355,1.0,3.0,94,0.00,,CLR,0.00,0.00,VWS V14.01,2013-09-19 05:03:00,
2013-09-19 01:08:00,74.8,73.0,29.95,North,355,0.0,2.0,94,0.00,,CLR,0.00,0.00,VWS V14.01,2013-09-19 05:08:00,
2013-09-19 01:13:00,74.7,72.9,29.94,North,355,0.0,1.0,94,0.00,,CLR,0.00,0.00,VWS V14.01,2013-09-19 05:13:00,
2013-09-19 01:18:00,74.7,72.9,29.94,North,355,0.0,0.0,94,0.00,,CLR,0.00,0.00,VWS V14.01,2013-09-19 05:18:00,
2013-09-19 01:23:00,74.7,72.9,29.94,North,355,0.0,1.0,94,0.00,,CLR,0.00,0.00,VWS V14.01,2013-09-19 05:23:00,
2013-09-19 01:28:00,74.7,72.9,29.94,North,355,2.0,2.0,94,0.00,,CLR,0.00,0.00,VWS V14.01,2013-09-19 05:28:00,
2013-09-19 01:33:00,74.7,72.9,29.94,North,355,0.0,2.0,94,0.00,,CLR,0.00,0.00,VWS V14.01,2013-09-19 05:33:00,
2013-09-19 01:38:00,74.8,73.0,29.94,North,355,1.0,2.0,94,0.00,,CLR,0.00,0.00,VWS V14.01,2013-09-19 05:38:00,
2013-09-19 01:43:00,74.9,73.1,29.94,North,355,3.0,3.0,94,0.00,,CLR,0.00,0.00,VWS V14.01,2013-09-19 05:43:00,
2013-09-19 01:48:00,74.8,73.0,29.94,North,355,0.0,1.0,94,0.00,,CLR,0.00,0.00,VWS V14.01,2013-09-19 05:48:00,
2013-09-19 01:53:00,74.8,73.0,29.94,North,355,0.0,1.0,94,0.00,,CLR,0.00,0.00,VWS V14.01,2013-09-19 05:53:00,
2013-09-19 01:58:00,74.8,73.0,29.94,North,355,2.0,3.0,94,0.00,,CLR,0.00,0.00,VWS V14.01,2013-09-19 05:58:00,
2013-09-19 02:03:00,74.7,72.9,29.94,North,355,2.0,3.0,94,0.00,,CLR,0.00,0.00,VWS V14.01,2013-09-19 06:03:00,
2013-09-19 02:08:00,74.8,73.0,29.94,North,355,2.0,3.0,94,0.00,,CLR,0.00,0.00,VWS V14.01,2013-09-19 06:08:00,
2013-09-19 02:13:00,74.6,72.8,29.93,North,355,4.0,5.0,94,0.00,,CLR,0.00,0.00,VWS V14.01,2013-09-19 06:13:00,
2013-09-19 02:18:00,74.6,72.8,29.93,North,355,2.0,5.0,94,0.00,,CLR,0.00,0.00,VWS V14.01,2013-09-19 06:18:00,
2013-09-19 02:23:00,74.5,72.7,29.93,North,355,3.0,5.0,94,0.00,,CLR,0.00,0.00,VWS V14.01,2013-09-19 06:23:00,
2013-09-19 02:28:00,74.5,72.7,29.93,North,355,3.0,5.0,94,0.00,,CLR,0.00,0.00,VWS V14.01,2013-09-19 06:28:00,
2013-09-19 02:33:00,74.6,72.8,29.92,North,355,4.0,5.0,94,0.00,,CLR,0.00,0.00,VWS V14.01,2013-09-19 06:33:00,
2013-09-19 02:38:00,74.7,72.9,29.92,North,355,6.0,6.0,94,0.00,,CLR,0.00,0.00,VWS V14.01,2013-09-19 06:38:00,
2013-09-19 02:43:00,74.7,72.9,29.92,North,355,2.0,5.0,94,0.00,,CLR,0.00,0.00,VWS V14.01,2013-09-19 06:43:00,
2013-09-19 02:48:00,74.6,72.8,29.92,North,355,2.0,4.0,94,0.00,,CLR,0.00,0.00,VWS V14.01,2013-09-19 06:48:00,
2013-09-19 02:53:00,74.6,72.8,29.92,North,355,1.0,3.0,94,0.00,,CLR,0.00,0.00,VWS V14.01,2013-09-19 06:53:00,
2013-09-19 02:58:00,74.6,72.8,29.92,North,355,1.0,2.0,94,0.00,,CLR,0.00,0.00,VWS V14.01,2013-09-19 06:58:00,
2013-09-19 03:03:00,74.6,72.8,29.92,North,355,1.0,4.0,94,0.00,,CLR,0.00,0.00,VWS V14.01,2013-09-19 07:03:00,
2013-09-19 03:08:00,74.5,72.7,29.92,North,355,1.0,3.0,94,0.00,,CLR,0.00,0.00,VWS V14.01,2013-09-19 07:08:00,
2013-09-19 03:13:00,74.5,72.7,29.91,North,355,2.0,2.0,94,0.00,,CLR,0.00,0.00,VWS V14.01,2013-09-19 07:13:00,
2013-09-19 03:18:00,74.6,72.8,29.91,North,355,1.0,1.0,94,0.00,,CLR,0.00,0.00,VWS V14.01,2013-09-19 07:18:00,
2013-09-19 03:23:00,74.5,72.7,29.91,North,355,0.0,2.0,94,0.00,,CLR,0.00,0.00,VWS V14.01,2013-09-19 07:23:00,
2013-09-19 03:28:00,74.5,72.7,29.91,North,355,0.0,1.0,94,0.00,,CLR,0.00,0.00,VWS V14.01,2013-09-19 07:28:00,
2013-09-19 03:33:00,74.5,73.0,29.91,North,355,0.0,0.0,95,0.00,,CLR,0.00,0.00,VWS V14.01,2013-09-19 07:33:00,
2013-09-19 03:38:00,74.6,73.1,29.91,North,355,0.0,1.0,95,0.00,,CLR,0.00,0.00,VWS V14.01,2013-09-19 07:38:00,
2013-09-19 03:43:00,74.5,73.0,29.91,North,355,3.0,3.0,95,0.00,,CLR,0.00,0.00,VWS V14.01,2013-09-19 07:43:00,
2013-09-19 03:48:00,74.6,73.1,29.91,North,355,0.0,3.0,95,0.00,,CLR,0.00,0.00,VWS V14.01,2013-09-19 07:48:00,
2013-09-19 03:53:00,74.6,73.1,29.91,North,355,0.0,3.0,95,0.00,,CLR,0.00,0.00,VWS V14.01,2013-09-19 07:53:00,
2013-09-19 03:58:00,74.7,73.2,29.91,North,355,2.0,3.0,95,0.00,,CLR,0.00,0.00,VWS V14.01,2013-09-19 07:58:00,
2013-09-19 04:03:00,74.6,73.1,29.91,North,355,1.0,5.0,95,0.00,,CLR,0.00,0.00,VWS V14.01,2013-09-19 08:03:00,
2013-09-19 04:08:00,74.6,73.1,29.90,North,355,0.0,4.0,95,0.00,,CLR,0.00,0.00,VWS V14.01,2013-09-19 08:08:00,
2013-09-19 04:13:00,74.7,73.2,29.90,North,355,3.0,3.0,95,0.00,,CLR,0.00,0.00,VWS V14.01,2013-09-19 08:13:00,
2013-09-19 04:18:00,74.7,73.2,29.90,North,355,0.0,3.0,95,0.00,,CLR,0.00,0.00,VWS V14.01,2013-09-19 08:18:00,
2013-09-19 04:23:00,74.6,73.1,29.90,North,355,0.0,3.0,95,0.00,,CLR,0.00,0.00,VWS V14.01,2013-09-19 08:23:00,
2013-09-19 04:28:00,74.6,73.1,29.90,North,355,1.0,3.0,95,0.00,,CLR,0.00,0.00,VWS V14.01,2013-09-19 08:28:00,
2013-09-19 04:33:00,74.7,73.2,29.90,North,355,3.0,4.0,95,0.00,,CLR,0.00,0.00,VWS V14.01,2013-09-19 08:33:00,
2013-09-19 04:38:00,74.8,73.3,29.90,North,355,1.0,3.0,95,0.00,,CLR,0.00,0.00,VWS V14.01,2013-09-19 08:38:00,
2013-09-19 04:43:00,74.8,73.3,29.89,North,355,1.0,2.0,95,0.00,,CLR,0.00,0.00,VWS V14.01,2013-09-19 08:43:00,
2013-09-19 04:48:00,74.7,73.2,29.90,North,355,0.0,3.0,95,0.00,,CLR,0.00,0.00,VWS V14.01,2013-09-19 08:48:00,
2013-09-19 04:53:00,74.7,73.2,29.90,North,355,0.0,3.0,95,0.00,,CLR,0.00,0.00,VWS V14.01,2013-09-19 08:53:00,
2013-09-19 04:58:00,74.7,73.2,29.90,North,355,0.0,3.0,95,0.00,,CLR,0.00,0.00,VWS V14.01,2013-09-19 08:58:00,
2013-09-19 05:03:00,74.8,73.3,29.89,North,355,1.0,2.0,95,0.00,,CLR,0.00,0.00,VWS V14.01,2013-09-19 09:03:00,
2013-09-19 05:08:00,74.8,73.3,29.90,North,355,2.0,3.0,95,0.00,,CLR,0.00,0.00,VWS V14.01,2013-09-19 09:08:00,
2013-09-19 05:13:00,74.8,73.3,29.90,North,355,0.0,3.0,95,0.00,,CLR,0.00,0.00,VWS V14.01,2013-09-19 09:13:00,
2013-09-19 05:18:00,74.7,73.2,29.90,North,355,0.0,3.0,95,0.00,,CLR,0.00,0.00,VWS V14.01,2013-09-19 09:18:00,
2013-09-19 05:23:00,74.8,73.3,29.90,North,355,1.0,3.0,95,0.00,,CLR,0.00,0.00,VWS V14.01,2013-09-19 09:23:00,
2013-09-19 05:28:00,74.8,73.3,29.90,North,355,0.0,1.0,95,0.00,,CLR,0.00,0.00,VWS V14.01,2013-09-19 09:28:00,
2013-09-19 05:33:00,74.7,73.2,29.90,North,355,0.0,2.0,95,0.00,,CLR,0.00,0.00,VWS V14.01,2013-09-19 09:33:00,
2013-09-19 05:38:00,74.8,73.3,29.90,North,355,0.0,2.0,95,0.00,,CLR,0.00,0.00,VWS V14.01,2013-09-19 09:38:00,
2013-09-19 05:43:00,74.9,73.4,29.90,North,355,0.0,2.0,95,0.00,,CLR,0.00,0.00,VWS V14.01,2013-09-19 09:43:00,
2013-09-19 05:48:00,74.9,73.4,29.90,North,355,0.0,2.0,95,0.00,,CLR,0.00,0.00,VWS V14.01,2013-09-19 09:48:00,
2013-09-19 05:53:00,74.9,73.4,29.90,North,355,1.0,1.0,95,0.00,,CLR,0.00,0.00,VWS V14.01,2013-09-19 09:53:00,
2013-09-19 05:58:00,75.1,73.6,29.91,North,355,0.0,1.0,95,0.00,,CLR,0.00,0.00,VWS V14.01,2013-09-19 09:58:00,
2013-09-19 06:03:00,75.0,73.5,29.91,North,355,0.0,1.0,95,0.00,,CLR,0.00,0.00,VWS V14.01,2013-09-19 10:03:00,
2013-09-19 06:08:00,75.0,73.5,29.91,North,355,0.0,1.0,95,0.00,,CLR,0.00,0.00,VWS V14.01,2013-09-19 10:08:00,
2013-09-19 06:13:00,75.0,73.5,29.91,North,355,1.0,2.0,95,0.00,,CLR,0.00,0.00,VWS V14.01,2013-09-19 10:13:00,
2013-09-19 06:18:00,75.1,73.6,29.91,North,355,1.0,2.0,95,0.00,,CLR,0.00,0.00,VWS V14.01,2013-09-19 10:18:00,
2013-09-19 06:23:00,75.1,73.6,29.91,North,355,0.0,1.0,95,0.00,,CLR,0.00,0.00,VWS V14.01,2013-09-19 10:23:00,
2013-09-19 06:28:00,75.2,73.7,29.91,North,355,1.0,1.0,95,0.00,,CLR,0.00,0.00,VWS V14.01,2013-09-19 10:28:00,
2013-09-19 06:33:00,75.1,73.6,29.91,North,355,1.0,2.0,95,0.00,,CLR,0.00,0.00,VWS V14.01,2013-09-19 10:33:00,
2013-09-19 06:38:00,75.1,73.6,29.91,North,355,1.0,2.0,95,0.00,,CLR,0.00,0.00,VWS V14.01,2013-09-19 10:38:00,
2013-09-19 06:43:00,75.2,73.7,29.91,North,355,1.0,2.0,95,0.00,,CLR,0.00,0.00,VWS V14.01,2013-09-19 10:43:00,
2013-09-19 06:48:00,75.2,73.7,29.91,North,355,0.0,1.0,95,0.00,,CLR,0.00,0.00,VWS V14.01,2013-09-19 10:48:00,
2013-09-19 06:53:00,75.1,73.6,29.92,North,355,0.0,1.0,95,0.00,,SCT023CU,0.00,0.00,VWS V14.01,2013-09-19 10:53:00,
2013-09-19 06:58:00,75.1,73.6,29.92,North,355,0.0,1.0,95,0.00,,SCT023CU,0.00,0.00,VWS V14.01,2013-09-19 10:58:00,
2013-09-19 07:03:00,75.0,73.5,29.92,North,355,1.0,1.0,95,0.00,,SCT023CU,0.00,0.00,VWS V14.01,2013-09-19 11:03:00,
2013-09-19 07:08:00,75.0,73.5,29.92,North,355,0.0,3.0,95,0.00,,SCT023CU,0.00,0.00,VWS V14.01,2013-09-19 11:08:00,
2013-09-19 07:13:00,75.1,73.6,29.92,North,355,0.0,0.0,95,0.00,,SCT023CU,0.00,5.00,VWS V14.01,2013-09-19 11:13:00,
2013-09-19 07:18:00,75.1,73.6,29.92,North,355,0.0,0.0,95,0.00,,SCT023CU,0.00,9.00,VWS V14.01,2013-09-19 11:18:00,
2013-09-19 07:23:00,75.1,73.6,29.93,North,355,0.0,1.0,95,0.00,,SCT023CU,0.00,14.00,VWS V14.01,2013-09-19 11:23:00,
2013-09-19 07:28:00,75.2,74.0,29.93,North,355,0.0,1.0,96,0.00,,SCT023CU,0.00,19.00,VWS V14.01,2013-09-19 11:28:00,
2013-09-19 07:33:00,75.2,74.0,29.93,North,355,0.0,1.0,96,0.00,,SCT023CU,0.00,25.00,VWS V14.01,2013-09-19 11:33:00,
2013-09-19 07:38:00,75.3,74.1,29.93,North,355,0.0,0.0,96,0.00,,SCT023CU,0.00,35.00,VWS V14.01,2013-09-19 11:38:00,
2013-09-19 07:43:00,75.4,73.9,29.93,North,355,2.0,2.0,95,0.00,,SCT023CU,0.00,47.00,VWS V14.01,2013-09-19 11:43:00,
2013-09-19 07:48:00,75.4,73.9,29.93,North,355,1.0,1.0,95,0.00,,SCT023CU,0.00,60.00,VWS V14.01,2013-09-19 11:48:00,
2013-09-19 07:53:00,75.5,74.0,29.93,North,355,0.0,2.0,95,0.00,,SCT023CU,0.00,70.00,VWS V14.01,2013-09-19 11:53:00,
2013-09-19 07:58:00,75.5,74.0,29.93,North,355,1.0,3.0,95,0.00,,SCT023CU,0.00,30.00,VWS V14.01,2013-09-19 11:58:00,
2013-09-19 08:03:00,75.6,74.1,29.93,North,355,0.0,1.0,95,0.00,,SCT023CU,0.00,114.00,VWS V14.01,2013-09-19 12:03:00,
2013-09-19 08:08:00,75.7,74.5,29.93,North,355,0.0,1.0,96,0.00,,SCT023CU,0.00,120.00,VWS V14.01,2013-09-19 12:08:00,
2013-09-19 08:13:00,76.0,74.8,29.94,North,355,0.0,1.0,96,0.00,,SCT023CU,0.00,142.00,VWS V14.01,2013-09-19 12:13:00,
2013-09-19 08:18:00,76.3,74.8,29.94,North,355,0.0,3.0,95,0.00,,SCT023CU,0.00,162.00,VWS V14.01,2013-09-19 12:18:00,
2013-09-19 08:23:00,76.7,75.2,29.94,North,355,1.0,2.0,95,0.00,,SCT023CU,0.00,179.00,VWS V14.01,2013-09-19 12:23:00,
2013-09-19 08:28:00,77.2,75.7,29.93,North,355,0.0,2.0,95,0.00,,SCT023CU,0.00,195.00,VWS V14.01,2013-09-19 12:28:00,
2013-09-19 08:33:00,77.6,76.1,29.94,North,355,0.0,2.0,95,0.00,,SCT023CU,0.00,207.00,VWS V14.01,2013-09-19 12:33:00,
2013-09-19 08:38:00,77.9,76.0,29.94,North,355,1.0,2.0,94,0.00,,SCT023CU,0.00,227.00,VWS V14.01,2013-09-19 12:38:00,
2013-09-19 08:43:00,78.4,76.5,29.94,North,355,1.0,3.0,94,0.00,,SCT023CU,0.00,241.00,VWS V14.01,2013-09-19 12:43:00,
2013-09-19 08:48:00,78.8,76.6,29.94,North,355,1.0,3.0,93,0.00,,SCT023CU,0.00,255.00,VWS V14.01,2013-09-19 12:48:00,
2013-09-19 08:53:00,79.3,76.8,29.95,North,355,0.0,2.0,92,0.00,,SCT023CU,0.00,272.00,VWS V14.01,2013-09-19 12:53:00,
2013-09-19 08:58:00,79.7,76.8,29.95,North,355,3.0,3.0,91,0.00,,SCT023CU,0.00,287.00,VWS V14.01,2013-09-19 12:58:00,
2013-09-19 09:03:00,79.9,76.4,29.95,North,355,3.0,3.0,89,0.00,,SCT023CU,0.00,301.00,VWS V14.01,2013-09-19 13:03:00,
2013-09-19 09:08:00,80.3,76.4,29.95,North,355,3.0,4.0,88,0.00,,SCT023CU,0.00,315.00,VWS V14.01,2013-09-19 13:08:00,
2013-09-19 09:13:00,80.6,76.7,29.95,North,355,1.0,3.0,88,0.00,,SCT023CU,0.00,334.00,VWS V14.01,2013-09-19 13:13:00,
2013-09-19 09:18:00,81.0,76.8,29.95,North,355,2.0,2.0,87,0.00,,SCT023CU,0.00,350.00,VWS V14.01,2013-09-19 13:18:00,
2013-09-19 09:23:00,81.4,76.8,29.95,North,355,1.0,4.0,86,0.00,,SCT023CU,0.00,366.00,VWS V14.01,2013-09-19 13:23:00,
2013-09-19 09:28:00,81.8,76.8,29.95,North,355,4.0,5.0,85,0.00,,SCT023CU,0.00,380.00,VWS V14.01,2013-09-19 13:28:00,
2013-09-19 09:33:00,82.1,76.8,29.95,North,355,2.0,5.0,84,0.00,,SCT023CU,0.00,394.00,VWS V14.01,2013-09-19 13:33:00,
2013-09-19 09:38:00,82.1,76.1,29.96,North,360,5.0,7.0,82,0.00,,SCT023CU,0.00,408.00,VWS V14.01,2013-09-19 13:38:00,
2013-09-19 09:43:00,82.5,76.8,29.96,North,355,3.0,6.0,83,0.00,,SCT023CU,0.00,425.00,VWS V14.01,2013-09-19 13:43:00,
2013-09-19 09:48:00,82.8,76.8,29.96,North,355,0.0,4.0,82,0.00,,SCT023CU,0.00,461.00,VWS V14.01,2013-09-19 13:48:00,
2013-09-19 09:53:00,83.0,76.9,29.96,North,360,2.0,4.0,82,0.00,,SCT023CU,0.00,517.00,VWS V14.01,2013-09-19 13:53:00,
2013-09-19 09:58:00,83.3,76.9,29.96,NNE,26,4.0,7.0,81,0.00,,SCT023CU,0.00,543.00,VWS V14.01,2013-09-19 13:58:00,
2013-09-19 10:03:00,83.4,76.6,29.96,NNE,30,0.0,4.0,80,0.00,,SCT023CU,0.00,561.00,VWS V14.01,2013-09-19 14:03:00,
2013-09-19 10:08:00,83.5,75.5,29.96,NNE,12,4.0,8.0,77,0.00,,SCT023CU,0.00,193.00,VWS V14.01,2013-09-19 14:08:00,
2013-09-19 10:13:00,83.8,77.0,29.96,NNE,13,4.0,5.0,80,0.00,,SCT023CU,0.00,137.00,VWS V14.01,2013-09-19 14:13:00,
2013-09-19 10:18:00,83.6,76.0,29.96,NNE,16,2.0,5.0,78,0.00,,SCT023CU,0.00,619.00,VWS V14.01,2013-09-19 14:18:00,
2013-09-19 10:23:00,84.1,75.7,29.97,ENE,63,2.0,6.0,76,0.00,,SCT023CU,0.00,668.00,VWS V14.01,2013-09-19 14:23:00,
2013-09-19 10:28:00,84.9,76.5,29.96,ENE,59,4.0,6.0,76,0.00,,SCT023CU,0.00,654.00,VWS V14.01,2013-09-19 14:28:00,
2013-09-19 10:33:00,84.8,75.2,29.96,ENE,59,0.0,3.0,73,0.00,,SCT023CU,0.00,663.00,VWS V14.01,2013-09-19 14:33:00,
2013-09-19 10:38:00,85.6,76.0,29.96,NNE,15,5.0,8.0,73,0.00,,SCT023CU,0.00,751.00,VWS V14.01,2013-09-19 14:38:00,
2013-09-19 10:43:00,84.7,76.3,29.97,NNE,18,2.0,7.0,76,0.00,,SCT023CU,0.00,348.00,VWS V14.01,2013-09-19 14:43:00,
2013-09-19 10:48:00,84.9,76.9,29.97,NNE,17,4.0,5.0,77,0.00,,SCT023CU,0.00,761.00,VWS V14.01,2013-09-19 14:48:00,
2013-09-19 10:53:00,85.0,76.2,29.97,NNE,26,5.0,8.0,75,0.00,,SCT023CU,0.00,181.00,VWS V14.01,2013-09-19 14:53:00,
2013-09-19 10:58:00,84.1,76.1,29.97,NNE,13,6.0,11.0,77,0.00,,SCT023CU,0.00,186.00,VWS V14.01,2013-09-19 14:58:00,
2013-09-19 11:03:00,84.3,76.7,29.97,NE,40,4.0,7.0,78,0.00,,SCT023CU,0.00,232.00,VWS V14.01,2013-09-19 15:03:00,
2013-09-19 11:08:00,84.1,76.5,29.97,ENE,65,3.0,5.0,78,0.00,,SCT023CU,0.00,229.00,VWS V14.01,2013-09-19 15:08:00,
2013-09-19 11:13:00,84.8,76.8,29.97,ENE,59,2.0,5.0,77,0.00,,SCT023CU,0.00,844.00,VWS V14.01,2013-09-19 15:13:00,
2013-09-19 11:18:00,85.5,76.7,29.97,NE,49,2.0,8.0,75,0.00,,SCT023CU,0.00,499.00,VWS V14.01,2013-09-19 15:18:00,
2013-09-19 11:23:00,85.3,75.2,29.97,NE,38,5.0,7.0,72,0.00,,SCT023CU,0.00,872.00,VWS V14.01,2013-09-19 15:23:00,
2013-09-19 11:28:00,86.0,75.5,29.97,ENE,65,2.0,10.0,71,0.00,,SCT023CU,0.00,292.00,VWS V14.01,2013-09-19 15:28:00,
2013-09-19 11:33:00,85.7,74.8,29.97,NNE,13,8.0,12.0,70,0.00,,SCT023CU,0.00,229.00,VWS V14.01,2013-09-19 15:33:00,
2013-09-19 11:38:00,84.9,74.4,29.97,NE,48,2.0,11.0,71,0.00,,SCT023CU,0.00,221.00,VWS V14.01,2013-09-19 15:38:00,
2013-09-19 11:43:00,84.8,75.2,29.97,ENE,63,9.0,11.0,73,0.00,,SCT023CU,0.00,267.00,VWS V14.01,2013-09-19 15:43:00,
2013-09-19 11:48:00,84.9,75.7,29.97,NNE,31,7.0,12.0,74,0.00,,SCT023CU,0.00,306.00,VWS V14.01,2013-09-19 15:48:00,
2013-09-19 11:53:00,84.9,75.3,29.97,NE,51,6.0,11.0,73,0.00,,SCT023CU,0.00,295.00,VWS V14.01,2013-09-19 15:53:00,
2013-09-19 11:58:00,85.0,75.8,29.96,ENE,65,2.0,9.0,74,0.00,,SCT023CU,0.00,789.00,VWS V14.01,2013-09-19 15:58:00,
2013-09-19 12:03:00,86.2,76.5,29.96,East,93,4.0,5.0,73,0.00,,SCT023CU,0.00,974.00,VWS V14.01,2013-09-19 16:03:00,
2013-09-19 12:08:00,86.1,75.6,29.96,NNE,27,3.0,11.0,71,0.00,,SCT023CU,0.00,265.00,VWS V14.01,2013-09-19 16:08:00,
2013-09-19 12:13:00,85.8,76.6,29.96,NE,49,5.0,9.0,74,0.00,,SCT023CU,0.00,991.00,VWS V14.01,2013-09-19 16:13:00,
2013-09-19 12:18:00,85.9,75.8,29.96,ENE,65,7.0,7.0,72,0.00,,SCT023CU,0.00,918.00,VWS V14.01,2013-09-19 16:18:00,
2013-09-19 12:23:00,85.7,75.6,29.96,NNE,13,8.0,11.0,72,0.00,,SCT023CU,0.00,366.00,VWS V14.01,2013-09-19 16:23:00,
2013-09-19 12:28:00,85.6,76.0,29.96,NNE,12,6.0,9.0,73,0.00,,SCT023CU,0.00,246.00,VWS V14.01,2013-09-19 16:28:00,
2013-09-19 12:33:00,85.6,75.5,29.96,NNE,27,6.0,12.0,72,0.00,,SCT023CU,0.00,322.00,VWS V14.01,2013-09-19 16:33:00,
2013-09-19 12:38:00,86.1,75.2,29.96,NE,39,9.0,12.0,70,0.00,,SCT023CU,0.00,951.00,VWS V14.01,2013-09-19 16:38:00,
2013-09-19 12:43:00,86.4,76.3,29.95,NE,42,8.0,10.0,72,0.00,,SCT023CU,0.00,244.00,VWS V14.01,2013-09-19 16:43:00,
2013-09-19 12:48:00,87.1,77.0,29.95,NE,35,4.0,6.0,72,0.00,,SCT023CU,0.00,898.00,VWS V14.01,2013-09-19 16:48:00,
2013-09-19 12:53:00,86.3,75.8,29.95,East,99,5.0,9.0,71,0.00,,SCT023CU,0.00,904.00,VWS V14.01,2013-09-19 16:53:00,
2013-09-19 12:58:00,87.0,77.3,29.95,NNE,17,9.0,9.0,73,0.00,,SCT023CU,0.00,408.00,VWS V14.01,2013-09-19 16:58:00,
2013-09-19 13:03:00,86.9,76.8,29.95,NE,53,2.0,12.0,72,0.00,,SCT023CU,0.00,392.00,VWS V14.01,2013-09-19 17:03:00,
2013-09-19 13:08:00,86.9,76.8,29.95,NNE,26,6.0,9.0,72,0.00,,SCT023CU,0.00,304.00,VWS V14.01,2013-09-19 17:08:00,
2013-09-19 13:13:00,86.2,77.3,29.94,NNE,32,2.0,8.0,75,0.00,,SCT023CU,0.00,965.00,VWS V14.01,2013-09-19 17:13:00,
2013-09-19 13:18:00,86.6,76.9,29.94,East,94,4.0,12.0,73,0.00,,SCT023CU,0.00,930.00,VWS V14.01,2013-09-19 17:18:00,
2013-09-19 13:23:00,86.5,75.6,29.94,NE,55,3.0,11.0,70,0.00,,SCT023CU,0.00,810.00,VWS V14.01,2013-09-19 17:23:00,
2013-09-19 13:28:00,86.1,74.8,29.94,ENE,65,5.0,12.0,69,0.00,,SCT023CU,0.00,810.00,VWS V14.01,2013-09-19 17:28:00,
2013-09-19 13:33:00,86.8,75.0,29.93,ENE,75,10.0,13.0,68,0.00,,SCT023CU,0.00,921.00,VWS V14.01,2013-09-19 17:33:00,
2013-09-19 13:38:00,86.6,76.1,29.94,NNE,15,3.0,13.0,71,0.00,,SCT023CU,0.00,809.00,VWS V14.01,2013-09-19 17:38:00,
2013-09-19 13:44:00,86.7,74.9,29.93,NE,38,3.0,12.0,68,0.00,,SCT023CU,0.00,457.00,VWS V14.01,2013-09-19 17:44:00,
2013-09-19 13:49:00,86.1,75.6,29.93,ENE,65,3.0,13.0,71,0.00,,SCT023CU,0.00,508.00,VWS V14.01,2013-09-19 17:49:00,
2013-09-19 13:54:00,86.5,76.4,29.93,NE,40,7.0,11.0,72,0.00,,BKN023,0.00,1009.00,VWS V14.01,2013-09-19 17:54:00,
2013-09-19 13:59:00,86.6,76.1,29.93,ENE,63,4.0,12.0,71,0.00,,BKN023,0.00,930.00,VWS V14.01,2013-09-19 17:59:00,
2013-09-19 14:04:00,86.4,75.9,29.93,NE,47,4.0,12.0,71,0.00,,BKN023,0.00,432.00,VWS V14.01,2013-09-19 18:04:00,
2013-09-19 14:09:00,86.4,76.7,29.93,NNE,28,4.0,13.0,73,0.00,,BKN023,0.00,248.00,VWS V14.01,2013-09-19 18:09:00,
2013-09-19 14:14:00,85.1,75.5,29.93,East,84,6.0,13.0,73,0.00,,BKN023,0.00,264.00,VWS V14.01,2013-09-19 18:14:00,
2013-09-19 14:19:00,84.8,75.6,29.93,ENE,65,6.0,12.0,74,0.00,,BKN023,0.00,302.00,VWS V14.01,2013-09-19 18:19:00,
2013-09-19 14:24:00,84.7,75.9,29.93,East,90,8.0,12.0,75,0.00,,BKN023,0.00,306.00,VWS V14.01,2013-09-19 18:24:00,
2013-09-19 14:29:00,84.8,76.0,29.92,NE,38,4.0,7.0,75,0.00,,BKN023,0.00,359.00,VWS V14.01,2013-09-19 18:29:00,
2013-09-19 14:34:00,84.8,75.6,29.92,NNE,28,4.0,13.0,74,0.00,,BKN023,0.00,376.00,VWS V14.01,2013-09-19 18:34:00,
2013-09-19 14:39:00,84.6,75.4,29.92,ENE,61,5.0,11.0,74,0.00,,BKN023,0.00,230.00,VWS V14.01,2013-09-19 18:39:00,
2013-09-19 14:44:00,84.5,75.3,29.92,ENE,64,4.0,11.0,74,0.00,,BKN023,0.00,197.00,VWS V14.01,2013-09-19 18:44:00,
2013-09-19 14:49:00,84.5,76.1,29.92,NE,50,3.0,9.0,76,0.00,,BKN023,0.00,190.00,VWS V14.01,2013-09-19 18:49:00,
2013-09-19 14:54:00,84.4,76.0,29.92,ESE,110,10.0,10.0,76,0.00,,BKN023,0.00,195.00,VWS V14.01,2013-09-19 18:54:00,
2013-09-19 14:59:00,84.1,76.1,29.92,NE,43,6.0,10.0,77,0.00,,BKN023,0.00,181.00,VWS V14.01,2013-09-19 18:59:00,
2013-09-19 15:04:00,83.9,75.9,29.92,NE,42,4.0,11.0,77,0.00,,BKN023,0.00,172.00,VWS V14.01,2013-09-19 19:04:00,
2013-09-19 15:09:00,83.9,75.5,29.92,NE,55,2.0,9.0,76,0.00,,BKN023,0.00,185.00,VWS V14.01,2013-09-19 19:09:00,
2013-09-19 15:14:00,83.8,75.8,29.92,NE,56,4.0,10.0,77,0.00,,BKN023,0.00,207.00,VWS V14.01,2013-09-19 19:14:00,
2013-09-19 15:19:00,83.7,75.7,29.92,ENE,65,3.0,11.0,77,0.00,,BKN023,0.00,216.00,VWS V14.01,2013-09-19 19:19:00,
2013-09-19 15:24:00,83.5,75.5,29.92,ENE,78,9.0,9.0,77,0.00,,BKN023,0.00,214.00,VWS V14.01,2013-09-19 19:24:00,
2013-09-19 15:29:00,83.6,75.6,29.92,ESE,116,5.0,11.0,77,0.00,,BKN023,0.00,185.00,VWS V14.01,2013-09-19 19:29:00,
2013-09-19 15:34:00,83.5,75.5,29.92,NE,46,5.0,9.0,77,0.00,,BKN023,0.00,156.00,VWS V14.01,2013-09-19 19:34:00,
2013-09-19 15:39:00,83.4,75.1,29.92,ENE,65,2.0,10.0,76,0.00,,BKN023,0.00,153.00,VWS V14.01,2013-09-19 19:39:00,
2013-09-19 15:44:00,83.4,75.4,29.92,NE,45,3.0,11.0,77,0.00,,BKN023,0.00,144.00,VWS V14.01,2013-09-19 19:44:00,
2013-09-19 15:49:00,83.2,75.2,29.92,ENE,77,2.0,10.0,77,0.00,,BKN023,0.00,125.00,VWS V14.01,2013-09-19 19:49:00,
2013-09-19 15:54:00,83.2,75.6,29.92,ENE,72,6.0,11.0,78,0.00,,BKN023,0.00,120.00,VWS V14.01,2013-09-19 19:54:00,
2013-09-19 15:59:00,83.1,75.5,29.92,NE,53,3.0,10.0,78,0.00,,BKN023,0.00,116.00,VWS V14.01,2013-09-19 19:59:00,
2013-09-19 16:04:00,83.0,75.4,29.92,North,350,2.0,10.0,78,0.00,,SCT023,0.00,105.00,VWS V14.01,2013-09-19 20:04:00,
2013-09-19 16:09:00,83.0,75.4,29.92,NE,40,3.0,10.0,78,0.00,,SCT023,0.00,95.00,VWS V14.01,2013-09-19 20:09:00,
2013-09-19 16:14:00,83.0,75.4,29.91,ENE,57,5.0,7.0,78,0.00,,SCT023,0.00,88.00,VWS V14.01,2013-09-19 20:14:00,
2013-09-19 16:19:00,82.9,75.3,29.92,ENE,69,3.0,9.0,78,0.00,,SCT023,0.00,84.00,VWS V14.01,2013-09-19 20:19:00,
2013-09-19 16:24:00,82.8,74.9,29.92,NE,49,4.0,11.0,77,0.00,,SCT023,0.00,88.00,VWS V14.01,2013-09-19 20:24:00,
2013-09-19 16:29:00,82.9,74.9,29.92,NNE,28,4.0,7.0,77,0.00,,SCT023,0.00,93.00,VWS V14.01,2013-09-19 20:29:00,
2013-09-19 16:34:00,82.9,74.9,29.92,East,84,7.0,8.0,77,0.00,,SCT023,0.00,97.00,VWS V14.01,2013-09-19 20:34:00,
2013-09-19 16:39:00,82.8,74.9,29.92,NNE,25,2.0,8.0,77,0.00,,SCT023,0.00,98.00,VWS V14.01,2013-09-19 20:39:00,
2013-09-19 16:44:00,82.9,74.9,29.91,NE,52,7.0,12.0,77,0.00,,SCT023,0.00,107.00,VWS V14.01,2013-09-19 20:44:00,
2013-09-19 16:49:00,82.8,74.9,29.91,ENE,68,4.0,7.0,77,0.00,,SCT023,0.00,121.00,VWS V14.01,2013-09-19 20:49:00,
2013-09-19 16:54:00,82.8,74.9,29.92,ENE,63,4.0,11.0,77,0.00,,SCT023,0.00,111.00,VWS V14.01,2013-09-19 20:54:00,
2013-09-19 16:59:00,82.8,74.9,29.91,NNE,30,5.0,10.0,77,0.00,,SCT023,0.00,91.00,VWS V14.01,2013-09-19 20:59:00,
2013-09-19 17:04:00,82.8,74.9,29.92,ENE,58,6.0,12.0,77,0.00,,SCT023,0.00,81.00,VWS V14.01,2013-09-19 21:04:00,
2013-09-19 17:09:00,82.8,74.5,29.92,ESE,114,6.0,11.0,76,0.00,,SCT023,0.00,83.00,VWS V14.01,2013-09-19 21:09:00,
2013-09-19 17:14:00,82.8,74.9,29.92,NE,37,2.0,11.0,77,0.00,,SCT023,0.00,86.00,VWS V14.01,2013-09-19 21:14:00,
2013-09-19 17:19:00,82.8,75.2,29.92,ENE,61,4.0,7.0,78,0.00,,SCT023,0.00,93.00,VWS V14.01,2013-09-19 21:19:00,
2013-09-19 17:24:00,82.7,74.8,29.92,NE,46,7.0,12.0,77,0.00,,SCT023,0.00,102.00,VWS V14.01,2013-09-19 21:24:00,
2013-09-19 17:29:00,82.7,75.2,29.92,NE,34,4.0,12.0,78,0.00,,SCT023,0.00,109.00,VWS V14.01,2013-09-19 21:29:00,
2013-09-19 17:34:00,82.7,75.2,29.92,NE,56,6.0,11.0,78,0.00,,SCT023,0.00,109.00,VWS V14.01,2013-09-19 21:34:00,
2013-09-19 17:39:00,82.8,75.2,29.92,NNE,20,9.0,12.0,78,0.00,,SCT023,0.00,109.00,VWS V14.01,2013-09-19 21:39:00,
2013-09-19 17:44:00,82.8,74.9,29.92,ENE,57,11.0,13.0,77,0.00,,SCT023,0.00,121.00,VWS V14.01,2013-09-19 21:44:00,
2013-09-19 17:49:00,82.9,75.3,29.93,NNE,24,9.0,12.0,78,0.00,,SCT023,0.00,167.00,VWS V14.01,2013-09-19 21:49:00,
2013-09-19 17:54:00,82.9,74.9,29.93,ENE,66,7.0,9.0,77,0.00,,SCT023,0.00,114.00,VWS V14.01,2013-09-19 21:54:00,
2013-09-19 17:59:00,82.8,74.9,29.93,ENE,76,9.0,13.0,77,0.00,,SCT023,0.00,100.00,VWS V14.01,2013-09-19 21:59:00,
2013-09-19 18:04:00,82.9,74.9,29.93,NNE,28,2.0,10.0,77,0.00,,SCT023,0.00,79.00,VWS V14.01,2013-09-19 22:04:00,
2013-09-19 18:09:00,82.7,74.8,29.93,ENE,61,12.0,12.0,77,0.00,,SCT023,0.00,58.00,VWS V14.01,2013-09-19 22:09:00,
2013-09-19 18:14:00,82.7,74.8,29.93,ENE,65,5.0,9.0,77,0.00,,SCT023,0.00,49.00,VWS V14.01,2013-09-19 22:14:00,
2013-09-19 18:19:00,82.6,75.1,29.93,ENE,66,4.0,10.0,78,0.00,,SCT023,0.00,40.00,VWS V14.01,2013-09-19 22:19:00,
2013-09-19 18:24:00,82.5,75.3,29.93,NE,47,10.0,13.0,79,0.00,,SCT023,0.00,21.00,VWS V14.01,2013-09-19 22:24:00,
2013-09-19 18:29:00,81.2,74.4,29.93,NNE,22,5.0,12.0,80,0.00,,SCT023,0.00,25.00,VWS V14.01,2013-09-19 22:29:00,
2013-09-19 18:34:00,80.9,74.2,29.94,NNE,30,4.0,12.0,80,0.00,,SCT023,0.00,26.00,VWS V14.01,2013-09-19 22:34:00,
2013-09-19 18:39:00,80.8,74.4,29.93,NE,41,4.0,12.0,81,0.00,,SCT023,0.00,23.00,VWS V14.01,2013-09-19 22:39:00,
2013-09-19 18:44:00,80.8,74.8,29.93,ENE,65,2.0,6.0,82,0.00,,SCT023,0.00,21.00,VWS V14.01,2013-09-19 22:44:00,
2013-09-19 18:49:00,80.9,74.9,29.93,East,84,7.0,8.0,82,0.00,,SCT023,0.00,19.00,VWS V14.01,2013-09-19 22:49:00,
2013-09-19 18:54:00,81.0,75.0,29.94,ENE,57,3.0,8.0,82,0.00,,SCT023,0.00,16.00,VWS V14.01,2013-09-19 22:54:00,
2013-09-19 18:59:00,81.0,75.0,29.94,ENE,59,0.0,6.0,82,0.00,,SCT023,0.00,14.00,VWS V14.01,2013-09-19 22:59:00,
2013-09-19 19:04:00,81.1,75.1,29.94,NE,52,4.0,6.0,82,0.00,,SCT023,0.00,11.00,VWS V14.01,2013-09-19 23:04:00,
2013-09-19 19:09:00,81.1,75.1,29.94,ENE,67,5.0,6.0,82,0.00,,SCT023,0.00,7.00,VWS V14.01,2013-09-19 23:09:00,
2013-09-19 19:14:00,81.2,74.8,29.94,ENE,68,4.0,10.0,81,0.00,,SCT023,0.00,0.00,VWS V14.01,2013-09-19 23:14:00,
2013-09-19 19:19:00,81.2,74.4,29.94,ENE,59,9.0,11.0,80,0.00,,SCT023,0.00,0.00,VWS V14.01,2013-09-19 23:19:00,
2013-09-19 19:24:00,81.4,74.6,29.94,East,84,2.0,9.0,80,0.00,,SCT023,0.00,0.00,VWS V14.01,2013-09-19 23:24:00,
2013-09-19 19:29:00,81.3,74.5,29.94,East,92,5.0,5.0,80,0.00,,SCT023,0.00,0.00,VWS V14.01,2013-09-19 23:29:00,
2013-09-19 19:34:00,81.3,74.9,29.94,SE,129,5.0,5.0,81,0.00,,SCT023,0.00,0.00,VWS V14.01,2013-09-19 23:34:00,
2013-09-19 19:39:00,81.0,75.3,29.94,East,101,2.0,6.0,83,0.00,,SCT023,0.00,0.00,VWS V14.01,2013-09-19 23:39:00,
2013-09-19 19:44:00,80.8,75.5,29.94,NNE,28,4.0,7.0,84,0.00,,SCT023,0.00,0.00,VWS V14.01,2013-09-19 23:44:00,
2013-09-19 19:49:00,80.2,74.9,29.95,NE,48,7.0,11.0,84,0.05,,SCT023,0.05,0.00,VWS V14.01,2013-09-19 23:49:00,
2013-09-19 19:54:00,78.1,73.2,29.95,NE,34,9.0,16.0,85,0.12,,BKN034,0.12,0.00,VWS V14.01,2013-09-19 23:54:00,
2013-09-19 19:59:00,77.4,73.6,29.95,ENE,67,2.0,8.0,88,0.16,,BKN034,0.16,0.00,VWS V14.01,2013-09-19 23:59:00,
2013-09-19 20:04:00,77.1,73.6,29.96,NNE,32,4.0,11.0,89,0.18,,BKN034,0.18,0.00,VWS V14.01,2013-09-20 00:04:00,
2013-09-19 20:09:00,76.8,73.7,29.96,East,101,0.0,10.0,90,0.25,,BKN034,0.25,0.00,VWS V14.01,2013-09-20 00:09:00,
2013-09-19 20:14:00,76.5,73.7,29.96,NNE,25,4.0,4.0,91,0.28,,BKN034,0.28,0.00,VWS V14.01,2013-09-20 00:14:00,
2013-09-19 20:19:00,76.5,74.0,29.95,SE,144,1.0,4.0,92,0.30,,BKN034,0.30,0.00,VWS V14.01,2013-09-20 00:19:00,
2013-09-19 20:24:00,76.5,74.0,29.95,SE,133,1.0,4.0,92,0.33,,BKN034,0.33,0.00,VWS V14.01,2013-09-20 00:24:00,
2013-09-19 20:29:00,76.4,73.9,29.95,ENE,63,6.0,6.0,92,0.37,,BKN034,0.37,0.00,VWS V14.01,2013-09-20 00:29:00,
2013-09-19 20:34:00,76.1,73.6,29.95,East,80,5.0,9.0,92,0.42,,BKN034,0.42,0.00,VWS V14.01,2013-09-20 00:34:00,
2013-09-19 20:39:00,76.7,74.5,29.95,ENE,61,3.0,6.0,93,0.43,,BKN034,0.43,0.00,VWS V14.01,2013-09-20 00:39:00,
2013-09-19 20:44:00,77.0,74.5,29.95,East,94,0.0,1.0,92,0.43,,BKN034,0.43,0.00,VWS V14.01,2013-09-20 00:44:00,
2013-09-19 20:49:00,77.3,74.8,29.96,East,94,1.0,2.0,92,0.43,,BKN034,0.43,0.00,VWS V14.01,2013-09-20 00:49:00,
2013-09-19 20:54:00,77.3,74.8,29.96,NE,37,0.0,4.0,92,0.35,,BKN034,0.43,0.00,VWS V14.01,2013-09-20 00:54:00,
2013-09-19 20:59:00,77.3,74.8,29.96,NNE,22,7.0,10.0,92,0.31,,BKN034,0.44,0.00,VWS V14.01,2013-09-20 00:59:00,
2013-09-19 21:04:00,77.3,74.8,29.96,NNW,341,6.0,9.0,92,0.28,,BKN034,0.44,0.00,VWS V14.01,2013-09-20 01:04:00,
2013-09-19 21:09:00,77.1,74.6,29.96,NNE,15,4.0,8.0,92,0.24,,BKN034,0.44,0.00,VWS V14.01,2013-09-20 01:09:00,
2013-09-19 21:14:00,77.0,74.5,29.96,North,11,7.0,9.0,92,0.19,,BKN034,0.45,0.00,VWS V14.01,2013-09-20 01:14:00,
2013-09-19 21:19:00,77.1,74.6,29.96,North,5,4.0,6.0,92,0.16,,BKN034,0.45,0.00,VWS V14.01,2013-09-20 01:19:00,
2013-09-19 21:24:00,77.1,74.3,29.96,NE,38,2.0,3.0,91,0.14,,BKN034,0.45,0.00,VWS V14.01,2013-09-20 01:24:00,
2013-09-19 21:29:00,77.3,74.8,29.96,NE,38,0.0,3.0,92,0.10,,BKN034,0.45,0.00,VWS V14.01,2013-09-20 01:29:00,
2013-09-19 21:34:00,77.1,74.3,29.96,NE,38,0.0,1.0,91,0.07,,BKN034,0.45,0.00,VWS V14.01,2013-09-20 01:34:00,
2013-09-19 21:39:00,77.1,74.3,29.96,NE,38,0.0,1.0,91,0.03,,BKN034,0.45,0.00,VWS V14.01,2013-09-20 01:39:00,
2013-09-19 21:44:00,77.3,74.5,29.96,NE,38,0.0,2.0,91,0.02,,BKN034,0.45,0.00,VWS V14.01,2013-09-20 01:44:00,
2013-09-19 21:49:00,77.3,74.5,29.97,NE,38,0.0,3.0,91,0.02,,BKN034,0.45,0.00,VWS V14.01,2013-09-20 01:49:00,
2013-09-19 21:54:00,77.2,74.4,29.97,NE,54,3.0,4.0,91,0.02,,BKN034,0.45,0.00,VWS V14.01,2013-09-20 01:54:00,
2013-09-19 21:59:00,77.3,74.5,29.97,NE,54,1.0,3.0,91,0.02,,BKN034,0.45,0.00,VWS V14.01,2013-09-20 01:59:00,
2013-09-19 22:04:00,77.3,74.5,29.97,ENE,75,4.0,5.0,91,0.01,,BKN034,0.45,0.00,VWS V14.01,2013-09-20 02:04:00,
2013-09-19 22:09:00,77.3,74.1,29.97,NE,38,1.0,5.0,90,0.01,,OVC110,0.45,0.00,VWS V14.01,2013-09-20 02:09:00,
2013-09-19 22:14:00,77.4,74.2,29.97,ENE,74,0.0,5.0,90,0.00,,OVC110,0.45,0.00,VWS V14.01,2013-09-20 02:14:00,
2013-09-19 22:19:00,77.5,74.3,29.97,NE,45,1.0,4.0,90,0.00,,OVC110,0.45,0.00,VWS V14.01,2013-09-20 02:19:00,
2013-09-19 22:24:00,77.6,74.1,29.98,ENE,76,0.0,5.0,89,0.00,,OVC110,0.45,0.00,VWS V14.01,2013-09-20 02:24:00,
2013-09-19 22:29:00,77.7,73.9,29.98,ENE,76,1.0,2.0,88,0.00,,OVC110,0.45,0.00,VWS V14.01,2013-09-20 02:29:00,
2013-09-19 22:34:00,77.8,74.0,29.98,ENE,63,0.0,4.0,88,0.00,,OVC110,0.45,0.00,VWS V14.01,2013-09-20 02:34:00,
2013-09-19 22:39:00,77.9,73.7,29.98,ENE,63,1.0,3.0,87,0.00,,OVC110,0.45,0.00,VWS V14.01,2013-09-20 02:39:00,
2013-09-19 22:44:00,78.0,73.8,29.98,ENE,63,0.0,3.0,87,0.00,,OVC110,0.45,0.00,VWS V14.01,2013-09-20 02:44:00,
2013-09-19 22:49:00,78.1,73.6,29.98,ENE,63,0.0,2.0,86,0.00,,OVC110,0.45,0.00,VWS V14.01,2013-09-20 02:49:00,
2013-09-19 22:54:00,78.1,73.2,29.98,ENE,63,1.0,4.0,85,0.00,,OVC110,0.45,0.00,VWS V14.01,2013-09-20 02:54:00,
2013-09-19 22:59:00,78.1,73.2,29.98,ENE,63,0.0,3.0,85,0.00,,OVC110,0.45,0.00,VWS V14.01,2013-09-20 02:59:00,
2013-09-19 23:04:00,78.2,73.0,29.98,ENE,63,0.0,2.0,84,0.00,,OVC110,0.45,0.00,VWS V14.01,2013-09-20 03:04:00,
2013-09-19 23:09:00,78.2,73.0,29.97,ENE,63,0.0,1.0,84,0.00,,OVC110,0.45,0.00,VWS V14.01,2013-09-20 03:09:00,
2013-09-19 23:14:00,78.2,72.6,29.97,ENE,63,0.0,3.0,83,0.00,,OVC110,0.45,0.00,VWS V14.01,2013-09-20 03:14:00,
2013-09-19 23:19:00,78.2,72.6,29.97,ENE,62,1.0,2.0,83,0.00,,OVC110,0.45,0.00,VWS V14.01,2013-09-20 03:19:00,
2013-09-19 23:24:00,78.2,72.6,29.97,ENE,62,1.0,3.0,83,0.00,,OVC110,0.45,0.00,VWS V14.01,2013-09-20 03:24:00,
2013-09-19 23:29:00,78.2,72.3,29.97,ENE,62,2.0,3.0,82,0.00,,OVC110,0.45,0.00,VWS V14.01,2013-09-20 03:29:00,
2013-09-19 23:34:00,78.2,72.3,29.96,ENE,62,0.0,1.0,82,0.00,,OVC110,0.45,0.00,VWS V14.01,2013-09-20 03:34:00,
2013-09-19 23:39:00,78.2,72.3,29.97,ENE,62,0.0,2.0,82,0.00,,OVC110,0.45,0.00,VWS V14.01,2013-09-20 03:39:00,
2013-09-19 23:44:00,78.2,72.3,29.96,East,89,1.0,4.0,82,0.00,,OVC110,0.45,0.00,VWS V14.01,2013-09-20 03:44:00,
2013-09-19 23:49:00,78.2,72.3,29.96,ENE,61,1.0,4.0,82,0.00,,OVC110,0.45,0.00,VWS V14.01,2013-09-20 03:49:00,
2013-09-19 23:54:00,78.2,71.9,29.96,ENE,61,0.0,4.0,81,0.00,,OVC110,0.45,0.00,VWS V14.01,2013-09-20 03:54:00,
2013-09-19 23:59:00,78.2,71.9,29.96,ENE,61,1.0,3.0,81,0.00,,OVC110,0.45,0.00,VWS V14.01,2013-09-20 03:59:00,